AUA528L LIML-LOWW

Flight info

Callsign AUA528L
Flight time 0h 59m
Altitude 34000
Route NESTI DCT ARALD DCT ABTAN ABTAN2W
Aircraft A320/M-SDE2E3FGHIJ1RWXY/LB1

Departure

Time 2026-05-04 18:38
Airport Milano Linate Airport (LIML)

Arrival

Time 2026-05-04 19:37
Airport Vienna International Airport (LOWW)
Time Latitude Longitude Altitude Speed Heading
2026-05-04 18:28 45.45511 9.28073 360 ft 0 kts 90°
2026-05-04 18:29 45.45511 9.28085 360 ft 8 kts 90°
2026-05-04 18:30 45.45426 9.28155 360 ft 9 kts 182°
2026-05-04 18:30 45.45351 9.28135 366 ft 19 kts 204°
2026-05-04 18:30 45.45205 9.28047 361 ft 22 kts 186°
2026-05-04 18:31 45.45046 9.28063 360 ft 24 kts 175°
2026-05-04 18:31 45.44943 9.28003 360 ft 16 kts 247°
2026-05-04 18:31 45.44861 9.27934 360 ft 18 kts 173°
2026-05-04 18:31 45.44728 9.27953 360 ft 20 kts 174°
2026-05-04 18:32 45.44586 9.27967 362 ft 21 kts 176°
2026-05-04 18:32 45.44434 9.27980 360 ft 23 kts 176°
2026-05-04 18:32 45.44274 9.27999 360 ft 24 kts 175°
2026-05-04 18:32 45.44105 9.28018 363 ft 25 kts 175°
2026-05-04 18:33 45.43928 9.28037 360 ft 26 kts 175°
2026-05-04 18:33 45.43744 9.28056 363 ft 27 kts 176°
2026-05-04 18:33 45.43553 9.28075 362 ft 28 kts 175°
2026-05-04 18:33 45.43447 9.28035 361 ft 11 kts 249°
2026-05-04 18:34 45.43442 9.27958 360 ft 0 kts 266°
2026-05-04 18:36 45.43442 9.27957 360 ft 1 kts 266°
2026-05-04 18:36 45.43439 9.27887 362 ft 8 kts 268°
2026-05-04 18:37 45.43455 9.27831 364 ft 6 kts 317°
2026-05-04 18:37 45.43606 9.27800 363 ft 53 kts 355°
2026-05-04 18:37 45.44222 9.27736 361 ft 122 kts 355°
2026-05-04 18:37 45.45250 9.27629 419 ft 168 kts 355°
2026-05-04 18:38 45.46463 9.27497 948 ft 180 kts 349°
2026-05-04 18:38 45.47664 9.27020 1625 ft 181 kts 339°
2026-05-04 18:38 45.48910 9.26368 1961 ft 202 kts 338°
2026-05-04 18:38 45.50287 9.25628 2339 ft 220 kts 338°
2026-05-04 18:39 45.51743 9.24862 3086 ft 225 kts 338°
2026-05-04 18:39 45.53229 9.24095 3897 ft 229 kts 339°
2026-05-04 18:39 45.54742 9.23331 4719 ft 232 kts 341°
2026-05-04 18:39 45.56349 9.23037 5457 ft 238 kts
2026-05-04 18:40 45.57910 9.23836 6166 ft 243 kts 37°
2026-05-04 18:40 45.58999 9.25650 6879 ft 244 kts 68°
2026-05-04 18:40 45.59498 9.27968 7601 ft 246 kts 78°
2026-05-04 18:40 45.59931 9.30338 8397 ft 248 kts 78°
2026-05-04 18:41 45.60371 9.32742 9170 ft 252 kts 79°
2026-05-04 18:41 45.60820 9.35179 9946 ft 256 kts 79°
2026-05-04 18:41 45.61278 9.37657 10760 ft 261 kts 79°
2026-05-04 18:41 45.61750 9.40186 11436 ft 266 kts 78°
2026-05-04 18:42 45.62233 9.42762 12095 ft 271 kts 78°
2026-05-04 18:42 45.62732 9.45448 12459 ft 291 kts 78°
2026-05-04 18:42 45.63272 9.48354 12694 ft 314 kts 77°
2026-05-04 18:42 45.63855 9.51489 12877 ft 338 kts 77°
2026-05-04 18:43 45.64473 9.54826 13204 ft 354 kts 77°
2026-05-04 18:43 45.65110 9.58258 13685 ft 361 kts 77°
2026-05-04 18:43 45.65758 9.61752 14280 ft 366 kts 77°
2026-05-04 18:43 45.66414 9.65288 14870 ft 370 kts 77°
2026-05-04 18:44 45.67073 9.68858 15486 ft 374 kts 76°
2026-05-04 18:44 45.67514 9.71243 15885 ft 376 kts 76°
2026-05-04 18:44 45.68413 9.76109 16706 ft 381 kts 76°
2026-05-04 18:44 45.69090 9.79793 17316 ft 385 kts 76°
2026-05-04 18:45 45.69770 9.83516 17910 ft 388 kts 76°
2026-05-04 18:45 45.70453 9.87266 18506 ft 391 kts 76°
2026-05-04 18:45 45.71140 9.91046 19029 ft 394 kts 76°
2026-05-04 18:45 45.71829 9.94851 19582 ft 397 kts 76°
2026-05-04 18:46 45.72521 9.98685 20109 ft 399 kts 76°
2026-05-04 18:46 45.73217 10.02545 20650 ft 402 kts 76°
2026-05-04 18:46 45.73908 10.06382 21147 ft 405 kts 76°
2026-05-04 18:46 45.74610 10.10289 21665 ft 407 kts 77°
2026-05-04 18:47 45.75318 10.14229 22158 ft 410 kts 77°
2026-05-04 18:47 45.76032 10.18190 22652 ft 412 kts 77°
2026-05-04 18:47 45.76750 10.22179 23094 ft 415 kts 77°
2026-05-04 18:47 45.77470 10.26195 23573 ft 417 kts 77°
2026-05-04 18:48 45.78191 10.30232 24015 ft 419 kts 77°
2026-05-04 18:48 45.78911 10.34290 24426 ft 421 kts 77°
2026-05-04 18:48 45.79629 10.38362 24826 ft 423 kts 77°
2026-05-04 18:48 45.80417 10.42439 25239 ft 425 kts 71°
2026-05-04 18:49 45.81577 10.46330 25734 ft 425 kts 65°
2026-05-04 18:49 45.82837 10.50152 26235 ft 424 kts 65°
2026-05-04 18:49 45.84090 10.53967 26726 ft 423 kts 66°
2026-05-04 18:49 45.85337 10.57784 27231 ft 422 kts 66°
2026-05-04 18:50 45.86568 10.61572 27952 ft 415 kts 66°
2026-05-04 18:50 45.87784 10.65318 28498 ft 414 kts 66°
2026-05-04 18:50 45.88997 10.69053 29004 ft 413 kts 66°
2026-05-04 18:50 45.90206 10.72781 29514 ft 411 kts 67°
2026-05-04 18:51 45.91408 10.76495 30057 ft 409 kts 67°
2026-05-04 18:51 45.92604 10.80203 30483 ft 409 kts 67°
2026-05-04 18:51 45.93795 10.83906 30848 ft 409 kts 67°
2026-05-04 18:51 45.94973 10.87566 31234 ft 409 kts 66°
2026-05-04 18:52 45.96180 10.91320 31601 ft 409 kts 66°
2026-05-04 18:52 45.97377 10.95043 31927 ft 411 kts 66°
2026-05-04 18:52 45.98580 10.98786 32209 ft 414 kts 66°
2026-05-04 18:52 45.99791 11.02561 32471 ft 418 kts 66°
2026-05-04 18:53 46.01006 11.06367 32733 ft 420 kts 66°
2026-05-04 18:53 46.02228 11.10206 32998 ft 423 kts 66°
2026-05-04 18:53 46.03455 11.14056 33278 ft 425 kts 66°
2026-05-04 18:53 46.04688 11.17928 33529 ft 427 kts 66°
2026-05-04 18:54 46.05925 11.21818 33792 ft 428 kts 65°
2026-05-04 18:54 46.07151 11.25668 34057 ft 429 kts 65°
2026-05-04 18:54 46.08401 11.29602 34156 ft 436 kts 65°
2026-05-04 18:55 46.10955 11.37692 34144 ft 452 kts 65°
2026-05-04 18:55 46.13601 11.46077 34141 ft 467 kts 65°
2026-05-04 18:55 46.14953 11.50371 34135 ft 474 kts 65°
2026-05-04 18:56 46.17712 11.59160 34117 ft 487 kts 66°
2026-05-04 18:56 46.20517 11.68134 34116 ft 492 kts 66°
2026-05-04 18:57 46.23322 11.77158 34092 ft 493 kts 66°
2026-05-04 18:57 46.26129 11.86198 34092 ft 493 kts 66°
2026-05-04 18:58 46.28935 11.95251 34094 ft 493 kts 66°
2026-05-04 18:58 46.31727 12.04314 34093 ft 493 kts 66°
2026-05-04 18:59 46.34507 12.13376 34090 ft 492 kts 66°
2026-05-04 18:59 46.37283 12.22429 34094 ft 491 kts 66°
2026-05-04 19:00 46.40043 12.31476 34086 ft 491 kts 66°
2026-05-04 19:00 46.42789 12.40523 34101 ft 490 kts 66°
2026-05-04 19:01 46.45496 12.49592 34104 ft 490 kts 67°
2026-05-04 19:01 46.48057 12.58750 34085 ft 490 kts 68°
2026-05-04 19:02 46.50544 12.67942 34104 ft 488 kts 69°
2026-05-04 19:02 46.53041 12.77102 34108 ft 487 kts 68°
2026-05-04 19:03 46.55560 12.86236 34103 ft 487 kts 68°
2026-05-04 19:03 46.58078 12.95358 34095 ft 486 kts 68°
2026-05-04 19:04 46.60579 13.04498 34074 ft 486 kts 69°
2026-05-04 19:04 46.63049 13.13642 34091 ft 485 kts 69°
2026-05-04 19:05 46.65512 13.22795 34096 ft 486 kts 69°
2026-05-04 19:05 46.67977 13.31943 34091 ft 486 kts 69°
2026-05-04 19:06 46.70441 13.41089 34084 ft 485 kts 69°
2026-05-04 19:06 46.72897 13.50252 34078 ft 485 kts 69°
2026-05-04 19:07 46.75333 13.59425 34066 ft 485 kts 70°
2026-05-04 19:07 46.77763 13.68603 34064 ft 485 kts 70°
2026-05-04 19:08 46.80203 13.77796 34055 ft 486 kts 69°
2026-05-04 19:08 46.82628 13.87005 34059 ft 486 kts 70°
2026-05-04 19:09 46.85025 13.96159 34048 ft 486 kts 70°
2026-05-04 19:09 46.87435 14.05386 34042 ft 486 kts 70°
2026-05-04 19:10 46.89835 14.14618 34033 ft 486 kts 70°
2026-05-04 19:10 46.92226 14.23853 34036 ft 485 kts 70°
2026-05-04 19:11 46.94612 14.33083 34042 ft 485 kts 70°
2026-05-04 19:11 46.96992 14.42320 34044 ft 485 kts 70°
2026-05-04 19:12 47.00538 14.56165 34048 ft 483 kts 70°
2026-05-04 19:13 47.02879 14.65386 33790 ft 483 kts 70°
2026-05-04 19:13 47.04044 14.69984 33483 ft 481 kts 70°
2026-05-04 19:13 47.05207 14.74587 33205 ft 482 kts 70°
2026-05-04 19:13 47.06368 14.79200 32940 ft 483 kts 70°
2026-05-04 19:14 47.07532 14.83820 32674 ft 483 kts 70°
2026-05-04 19:14 47.08695 14.88450 32354 ft 485 kts 70°
2026-05-04 19:14 47.09859 14.93092 31748 ft 485 kts 70°
2026-05-04 19:14 47.11025 14.97745 31174 ft 487 kts 70°
2026-05-04 19:15 47.12194 15.02405 30602 ft 485 kts 69°
2026-05-04 19:15 47.13359 15.07052 30043 ft 485 kts 69°
2026-05-04 19:15 47.14522 15.11699 29438 ft 486 kts 70°
2026-05-04 19:15 47.15685 15.16366 28900 ft 487 kts 70°
2026-05-04 19:16 47.16847 15.21051 28388 ft 488 kts 70°
2026-05-04 19:16 47.18009 15.25749 27859 ft 490 kts 70°
2026-05-04 19:16 47.18779 15.28871 27492 ft 491 kts 70°
2026-05-04 19:16 47.20329 15.35178 26756 ft 488 kts 70°
2026-05-04 19:17 47.21090 15.38282 26377 ft 485 kts 70°
2026-05-04 19:17 47.22230 15.42928 25820 ft 481 kts 70°
2026-05-04 19:17 47.23364 15.47546 25231 ft 478 kts 70°
2026-05-04 19:17 47.24490 15.52129 24650 ft 475 kts 70°
2026-05-04 19:18 47.25609 15.56696 24063 ft 479 kts 70°
2026-05-04 19:18 47.26744 15.61340 23423 ft 484 kts 70°
2026-05-04 19:18 47.27880 15.66004 22772 ft 482 kts 70°
2026-05-04 19:18 47.29004 15.70638 22184 ft 479 kts 70°
2026-05-04 19:19 47.30115 15.75244 21591 ft 475 kts 71°
2026-05-04 19:19 47.31213 15.79814 20993 ft 471 kts 71°
2026-05-04 19:19 47.32304 15.84347 20430 ft 467 kts 71°
2026-05-04 19:19 47.33386 15.88843 19852 ft 465 kts 71°
2026-05-04 19:20 47.34464 15.93323 19275 ft 461 kts 71°
2026-05-04 19:20 47.35530 15.97767 18713 ft 459 kts 72°
2026-05-04 19:20 47.36778 16.02076 18184 ft 455 kts 60°
2026-05-04 19:20 47.38721 16.05736 17938 ft 455 kts 44°
2026-05-04 19:21 47.41108 16.08804 17988 ft 456 kts 40°
2026-05-04 19:21 47.43525 16.11841 17696 ft 456 kts 40°
2026-05-04 19:21 47.45930 16.14857 17072 ft 451 kts 40°
2026-05-04 19:21 47.48313 16.17842 16545 ft 448 kts 40°
2026-05-04 19:22 47.50681 16.20809 16029 ft 446 kts 40°
2026-05-04 19:22 47.53042 16.23772 15540 ft 443 kts 40°
2026-05-04 19:22 47.55385 16.26715 15039 ft 441 kts 40°
2026-05-04 19:22 47.57711 16.29641 14559 ft 437 kts 41°
2026-05-04 19:23 47.60026 16.32553 14077 ft 435 kts 40°
2026-05-04 19:23 47.62325 16.35448 13586 ft 432 kts 41°
2026-05-04 19:23 47.64605 16.38326 13100 ft 429 kts 41°
2026-05-04 19:23 47.66868 16.41190 12622 ft 426 kts 41°
2026-05-04 19:24 47.69117 16.44042 12163 ft 424 kts 41°
2026-05-04 19:24 47.71320 16.46842 11717 ft 419 kts 41°
2026-05-04 19:24 47.73511 16.49624 11273 ft 409 kts 41°
2026-05-04 19:24 47.75645 16.52326 10821 ft 385 kts 41°
2026-05-04 19:25 47.77605 16.54808 10620 ft 356 kts 41°
2026-05-04 19:25 47.79394 16.57081 10491 ft 331 kts 41°
2026-05-04 19:25 47.81090 16.59244 10265 ft 313 kts 41°
2026-05-04 19:25 47.82732 16.61337 9939 ft 310 kts 41°
2026-05-04 19:26 47.84358 16.63412 9555 ft 307 kts 41°
2026-05-04 19:26 47.85969 16.65476 9170 ft 306 kts 41°
2026-05-04 19:26 47.87575 16.67538 8782 ft 304 kts 41°
2026-05-04 19:26 47.89171 16.69583 8398 ft 302 kts 41°
2026-05-04 19:27 47.90756 16.71612 8064 ft 299 kts 41°
2026-05-04 19:27 47.92323 16.73624 8006 ft 297 kts 41°
2026-05-04 19:27 47.93891 16.75639 8014 ft 298 kts 41°
2026-05-04 19:27 47.95460 16.77655 8014 ft 298 kts 41°
2026-05-04 19:28 47.97033 16.79673 8011 ft 299 kts 40°
2026-05-04 19:28 47.98804 16.81310 7682 ft 300 kts 19°
2026-05-04 19:28 48.00830 16.81872 7315 ft 295 kts 357°
2026-05-04 19:28 48.02822 16.81346 6949 ft 289 kts 336°
2026-05-04 19:29 48.04614 16.80046 6595 ft 286 kts 330°
2026-05-04 19:29 48.06374 16.78685 6232 ft 284 kts 330°
2026-05-04 19:29 48.08125 16.77334 5853 ft 283 kts 330°
2026-05-04 19:29 48.09872 16.75985 5478 ft 283 kts 329°
2026-05-04 19:30 48.11616 16.74642 5028 ft 279 kts 329°
2026-05-04 19:30 48.13306 16.73349 4710 ft 266 kts 329°
2026-05-04 19:30 48.14920 16.72115 4404 ft 256 kts 328°
2026-05-04 19:30 48.16495 16.70902 4089 ft 254 kts 328°
2026-05-04 19:31 48.18056 16.69692 3810 ft 252 kts 328°
2026-05-04 19:31 48.19612 16.68482 3562 ft 253 kts 328°
2026-05-04 19:31 48.21177 16.67264 3321 ft 253 kts 328°
2026-05-04 19:31 48.22782 16.66168 3065 ft 255 kts 336°
2026-05-04 19:32 48.24498 16.65411 2728 ft 258 kts 343°
2026-05-04 19:32 48.26186 16.64578 2542 ft 251 kts 324°
2026-05-04 19:32 48.27359 16.62853 2498 ft 227 kts 289°
2026-05-04 19:32 48.27700 16.60683 2511 ft 208 kts 261°
2026-05-04 19:33 48.27617 16.58535 2511 ft 205 kts 257°
2026-05-04 19:33 48.27278 16.56511 2515 ft 195 kts 233°
2026-05-04 19:33 48.26456 16.54951 2502 ft 188 kts 217°
2026-05-04 19:33 48.25386 16.53853 2518 ft 185 kts 203°
2026-05-04 19:34 48.24174 16.53278 2510 ft 180 kts 188°
2026-05-04 19:34 48.22974 16.53239 2505 ft 166 kts 173°
2026-05-04 19:34 48.21904 16.53608 2482 ft 153 kts 166°
2026-05-04 19:34 48.20910 16.54030 2371 ft 146 kts 166°
2026-05-04 19:35 48.19944 16.54439 2195 ft 143 kts 166°
2026-05-04 19:35 48.18990 16.54843 2020 ft 142 kts 166°
2026-05-04 19:35 48.18064 16.55237 1859 ft 136 kts 167°
2026-05-04 19:35 48.17163 16.55654 1610 ft 135 kts 165°
2026-05-04 19:36 48.16267 16.56032 1394 ft 134 kts 166°
2026-05-04 19:36 48.15353 16.56408 1163 ft 136 kts 165°
2026-05-04 19:36 48.14450 16.56789 1067 ft 133 kts 164°
2026-05-04 19:36 48.13560 16.57155 907 ft 132 kts 163°
2026-05-04 19:37 48.12679 16.57530 739 ft 132 kts 161°
2026-05-04 19:37 48.11799 16.57891 630 ft 130 kts 161°
2026-05-04 19:37 48.11146 16.58173 618 ft 36 kts 165°
2026-05-04 19:37 48.11002 16.58223 612 ft 12 kts 202°
2026-05-04 19:38 48.11020 16.58114 612 ft 14 kts 301°
2026-05-04 19:38 48.11065 16.57996 614 ft 12 kts 296°
2026-05-04 19:38 48.11108 16.57863 615 ft 21 kts 295°
2026-05-04 19:38 48.11175 16.57657 613 ft 21 kts 296°
2026-05-04 19:39 48.11237 16.57467 622 ft 19 kts 295°
2026-05-04 19:39 48.11292 16.57292 621 ft 18 kts 295°
2026-05-04 19:39 48.11345 16.57134 620 ft 17 kts 297°
2026-05-04 19:39 48.11408 16.56941 617 ft 19 kts 295°
2026-05-04 19:40 48.11501 16.56894 612 ft 15 kts 21°
2026-05-04 19:40 48.11590 16.56874 617 ft 13 kts 308°
2026-05-04 19:40 48.11613 16.56769 610 ft 8 kts 234°
2026-05-04 19:40 48.11568 16.56735 618 ft 5 kts 205°
2026-05-04 19:41 48.11560 16.56729 609 ft 0 kts 205°